Flag for Equatorial Guinea Weather past 2 weeks in Mongomo, Equatorial Guinea

Now
68 °F

Partly cloudy.


Feels Like: 68 °F
Forecast: 65 / 82 °F
Wind: 2 mph from West

Location: Yaounde Airport

Current Time: Aug 22, 2014 at 3:13:05 AM

Latest Report: Aug 22, 2014 at 2:00 AM


Visibility: 4 mi

Pressure: 30.04 "Hg

Humidity: 94%

Dew point: 66 °F

Location of MongomoLocation

Historic Weather in Mongomo — Graph

°F

Mongomo temperature yesterday

Maximum temperature yesterday: 79 °F (at 3:00 PM)
Minimum temperature yesterday: 68 °F (at 12:00 AM)
Average temperature yesterday: 72 °F

Past Weeks' High & Low Weather Summary

 TemperatureHumidityPressure
High84 °F (Aug 16, 1:00 PM)100% (Aug 20, 2:00 AM)30.12 "Hg (Aug 20, 2:00 AM)
Low68 °F (Aug 7, 2:00 AM)58% (Aug 16, 1:00 PM)29.95 "Hg (Aug 12, 3:00 PM)
Average72 °F84%30.04 "Hg
* Reported Aug 7 2:00 AM — Aug 22 2:00 AM, Mongomo, Weather by CustomWeather, © 2014

Note: Actual official high and low records may vary slightly from our data, if they occured in-between our weather recording intervals... More about our weather records

Advertising

Mongomo weather history for previous 24 hours

 ConditionsComfort  
Time TempWeatherWind HumidityBarometerVisibility
2:00 AM
Aug 22
68 °FPartly cloudy.2 mph94%30.04 "Hg4 mi
1:00 AM68 °FPartly cloudy.3 mph94%30.04 "Hg5 mi
12:00 AM68 °FThunderstorms. Passing clouds.3 mph94%30.04 "Hg4 mi
11:00 PM
Aug 21
68 °FThunderstorms. Passing clouds.3 mph94%30.07 "Hg4 mi
10:00 PM70 °FThunderstorms. Passing clouds.3 mph94%30.07 "HgN/A
9:00 PM70 °FThunderstorms. Passing clouds.5 mph88%30.07 "HgN/A
8:00 PM70 °FThunderstorms. Passing clouds.3 mph88%30.04 "HgN/A
7:00 PM72 °FThunderstorms. Passing clouds.5 mph88%30.01 "HgN/A
6:00 PM73 °FThunderstorms. Partly sunny.8 mph83%30.01 "HgN/A
5:00 PM77 °FPartly sunny.6 mph74%29.98 "HgN/A
4:00 PM79 °FPartly sunny.9 mph70%29.98 "HgN/A
3:00 PM79 °FPartly sunny.9 mph70%30.01 "HgN/A
2:00 PM77 °FPartly sunny.9 mph74%30.01 "HgN/A
1:00 PM75 °FPartly sunny.8 mph78%30.04 "HgN/A
12:00 PM75 °FPartly sunny.9 mph78%30.07 "HgN/A
11:00 AM73 °FPartly sunny.8 mph83%30.09 "HgN/A
10:00 AM73 °FPartly sunny.7 mph78%30.09 "HgN/A
9:00 AM70 °FPartly sunny.6 mph88%30.09 "HgN/A
8:00 AM70 °FPartly sunny.1 mph88%30.09 "HgN/A
7:00 AM68 °FBroken clouds.2 mph94%30.07 "Hg5 mi
5:00 AM68 °FPartly cloudy.2 mph94%30.04 "Hg5 mi
4:00 AM68 °FThunderstorms. Partly cloudy.2 mph94%30.04 "Hg5 mi
3:00 AM68 °FThunderstorms. Partly cloudy.2 mph88%30.04 "Hg5 mi
Weather by CustomWeather, © 2014

See weather overviewHow to use our weather pages